Location: Braunsdorf
(50.7357°N, 11.9136°E)
Time: 10:19:09
(UTC+00:00)

Cosmos 1934 Rocket - Pass Details

Date: 17 February 2020
Orbit: 939 x 998 km, 83.0° (Epoch: 04 April)

Event Time Altitude Azimuth Distance (km) Brightness Sun altitude
Rises 03:42:53 0° 347° (NNW) 3,684 7.0 -25.7°
Reaches altitude 10° 03:45:25 10° 345° (NNW) 2,741 6.3 -25.3°
Maximum altitude 03:51:35 61° 267° (W) 1,117 3.9 -24.3°
Drops below altitude 10° 03:57:48 10° 189° (S) 2,755 6.2 -23.4°
Sets 04:00:21 0° 186° (S) 3,703 6.9 -23.0°
